{"data":{"norad_id":64176,"epoch":"2026-05-25T03:43:02.371584Z","epoch_age_seconds":58285,"freshness":"FRESH","line1":"1 64176U 25113G   26145.15488856  .00015182  00000+0  45947-3 0  9997","line2":"2 64176  53.1589  95.1518 0001152  85.7610 274.3524 15.34405720 56786","mean_motion":15.3440572,"eccentricity":0.0001152,"inclination_deg":53.1589,"raan_deg":95.1518,"arg_perigee_deg":85.761,"mean_anomaly_deg":274.3524,"bstar":0.00045947,"rev_number":5678,"period_min":93.847408233072,"perigee_km":461.89817637733,"apogee_km":463.47430205164,"semimajor_km":6840.8232392145,"source":"CELESTRAK","updated_at":"2026-05-25T13:38:20.310272Z"}}